Weather observations for the past three days for
Pontiac, Oakland County International Airport
| Date | Time (edt) | Wind (mph) | Vis. (mi.) | Weather | Sky Cond. | Temperature (ºF) | Relative Humidity | Wind Chill (°F) | Heat Index (°F) | Pressure | Precipitation (in) | ||||||
|---|---|---|---|---|---|---|---|---|---|---|---|---|---|---|---|---|---|
| Air | Dwpt | 6 hour | altimeter (in) | sea level (mb) | 1 hr | 3 hr | 6 hr | ||||||||||
| Max. | Min. | ||||||||||||||||
| 07 | 12:53 | W 16 G 28 | 10.00 | Mostly Cloudy | BKN060 | 51.1 | 26.1 | 38% | 29.9 | 1012.8 | |||||||
| 07 | 11:53 | W 18 | 10.00 | Mostly Cloudy | BKN060 | 51.1 | 27 | 39% | 29.9 | 1012.7 | |||||||
| 07 | 10:53 | W 14 G 24 | 10.00 | Mostly Cloudy | FEW040 BKN055 | 52 | 28 | 40% | 29.89 | 1012.5 | |||||||
| 07 | 09:53 | W 8 | 10.00 | Partly Cloudy | FEW042 SCT060 SCT250 | 50 | 28.9 | 44% | 47 | 29.9 | 1012.7 | ||||||
| 07 | 08:53 | W 5 | 10.00 | Partly Cloudy | FEW037 FEW090 SCT250 | 46.9 | 30 | 52% | 45 | 29.91 | 1012.9 | ||||||
| 07 | 07:53 | W 3 | 10.00 | A Few Clouds | FEW085 FEW250 | 43 | 34 | 45 | 39 | 71% | 29.91 | 1013.0 | |||||
| 07 | 06:53 | Calm | 10.00 | Partly Cloudy | FEW085 SCT250 | 39 | 32 | 76% | 29.89 | 1012.6 | |||||||
| 07 | 05:53 | NW 3 | 10.00 | Partly Cloudy | FEW070 SCT085 | 41 | 28.9 | 62% | 29.88 | 1012.4 | |||||||
| 06 | 23:53 | W 3 | 10.00 | Mostly Cloudy | BKN070 | 46.9 | 28 | 48% | 29.91 | 1013.1 | |||||||
| 06 | 22:53 | SW 3 | 10.00 | Mostly Cloudy | BKN070 | 48 | 28 | 46% | 29.92 | 1013.4 | |||||||
| 06 | 21:53 | SW 5 | 10.00 | Overcast | OVC070 | 50 | 28 | 43% | 49 | 29.91 | 1013.1 | ||||||
| 06 | 20:53 | SW 3 | 10.00 | Overcast | OVC070 | 50 | 28 | 43% | 29.9 | 1012.9 | |||||||
| 06 | 19:53 | SW 7 | 10.00 | Overcast | OVC075 | 50 | 28 | 52 | 48.9 | 43% | 48 | 29.89 | 1012.6 | ||||
| 06 | 18:53 | W 8 | 10.00 | Overcast | BKN070 OVC140 | 51.1 | 27 | 39% | 29.89 | 1012.5 | |||||||
| 06 | 17:53 | W 8 | 10.00 | Overcast | BKN070 OVC140 | 51.1 | 27 | 39% | 29.89 | 1012.6 | |||||||
| 06 | 16:53 | W 10 | 10.00 | Overcast | OVC065 | 50 | 27 | 41% | 46 | 29.89 | 1012.6 | ||||||
| 06 | 15:53 | W 10 | 10.00 | Overcast | BKN060 OVC150 | 50 | 28 | 43% | 46 | 29.9 | 1012.7 | ||||||
| 06 | 14:53 | NW 9 | 10.00 | Overcast | BKN060 OVC150 | 48.4 | 26.4 | 42% | 45 | 29.9 | 0.0 | ||||||
| 06 | 13:53 | NW 9 | 10.00 | Overcast | BKN055 BKN180 OVC250 | 48.4 | 27.7 | 45% | 45 | 29.91 | 0.0 | ||||||
| 06 | 12:53 | W 10 | 10.00 | Mostly Cloudy | BKN049 BKN060 BKN250 | 48.2 | 28.2 | 46% | 44 | 29.91 | 0.0 | ||||||
| 06 | 11:53 | N 12 | 10.00 | Mostly Cloudy | SCT049 BKN055 BKN250 | 48.4 | 29.3 | 48% | 44 | 29.9 | 0.0 | ||||||
| 06 | 10:53 | Vrbl 3 | 10.00 | Mostly Cloudy | FEW034 SCT120 BKN250 | 45.7 | 30.2 | 55% | 29.89 | 0.0 | |||||||
| 06 | 09:53 | N 8 | 10.00 | Mostly Cloudy | FEW033 SCT120 BKN250 | 45.1 | 30 | 56% | 41 | 29.88 | 0.0 | ||||||
| 06 | 08:53 | N 9 | 10.00 | Partly Cloudy | FEW030 SCT120 SCT250 | 44.8 | 32.7 | 63% | 40 | 29.85 | 0.0 | ||||||
| 06 | 07:53 | N 5 | 10.00 | Mostly Cloudy | FEW100 BKN130 BKN250 | 44.4 | 34.3 | 68% | 42 | 29.84 | 0.0 | ||||||
| 06 | 06:53 | N 6 | 10.00 | Mostly Cloudy | SCT110 BKN180 BKN250 | 43.3 | 36.5 | 77% | 40 | 29.81 | 0.0 | ||||||
| 06 | 05:53 | N 6 | 9.00 | Mostly Cloudy | BKN100 BKN180 | 45.1 | 35.4 | 69% | 43 | 29.79 | 0.0 | ||||||
| 05 | 23:53 | NW 7 | 10.00 | Overcast | OVC090 | 48.6 | 31.3 | 51% | 46 | 29.78 | 0.0 | ||||||
| 05 | 22:53 | W 9 | 10.00 | Overcast | OVC110 | 50.4 | 29.5 | 45% | 29.78 | 0.0 | |||||||
| 05 | 21:53 | NW 8 | 10.00 | Overcast | FEW070 OVC120 | 50.4 | 27.7 | 42% | 29.77 | 0.0 | |||||||
| 05 | 20:53 | W 12 | 10.00 | Overcast | FEW070 OVC140 | 52.2 | 25.9 | 36% | 29.76 | 0.0 | |||||||
| 05 | 19:53 | W 13 | 10.00 | Overcast | SCT070 OVC140 | 53.8 | 27.7 | 37% | 29.74 | 0.0 | |||||||
| 05 | 18:53 | W 10 | 10.00 | Overcast | SCT070 OVC140 | 53.8 | 32.7 | 45% | 29.75 | 0.0 | |||||||
| 05 | 17:53 | W 15 | 10.00 | Overcast | SCT035 OVC070 | 53.8 | 38.1 | 56% | 29.75 | 0.0 | |||||||
| 05 | 16:53 | NW 12 | 10.00 | Overcast | SCT035 OVC070 | 53.8 | 38.1 | 56% | 29.75 | 0.0 | |||||||
| 05 | 15:53 | W 12 G 21 | 10.00 | Overcast | SCT035 OVC070 | 55.6 | 38.1 | 52% | 29.75 | 0.0 | |||||||
| 05 | 14:53 | W 17 G 23 | 10.00 | Overcast | BKN035 OVC070 | 55.6 | 39.9 | 56% | 29.75 | 0.0 | |||||||
| 05 | 13:53 | W 10 | 10.00 | Overcast | SCT024 BKN049 OVC100 | 53.4 | 39.9 | 60% | 29.73 | 0.0 | |||||||
| 05 | 12:53 | SW 9 | 10.00 | Overcast | SCT047 BKN065 OVC095 | 52.3 | 44.1 | 74% | 29.73 | 0.0 | |||||||
| 05 | 11:53 | NW 10 | 9.00 | Light Rain | FEW040 SCT060 OVC080 | 51.8 | 42.3 | 70% | 29.73 | 0.0 | |||||||
| 05 | 10:53 | NW 8 | 10.00 | Overcast | SCT075 BKN090 OVC120 | 53.8 | 41.5 | 63% | 29.7 | 0.0 | |||||||
| 05 | 09:53 | NW 14 | 10.00 | Overcast | FEW030 BKN090 OVC120 | 56.1 | 43.7 | 63% | 29.69 | 0.0 | |||||||
| 05 | 08:53 | W 13 | 10.00 | Mostly Cloudy | FEW030 SCT090 BKN250 | 57.4 | 43.2 | 59% | 29.64 | 0.0 | |||||||
| 05 | 07:53 | W 13 | 10.00 | Mostly Cloudy | FEW080 SCT110 BKN250 | 55.9 | 46.9 | 72% | 29.63 | 0.0 | |||||||
| 05 | 06:53 | W 10 | 10.00 | Mostly Cloudy | FEW080 BKN120 BKN250 | 55.9 | 50.2 | 81% | 29.59 | 0.0 | |||||||
| 05 | 05:53 | W 12 | 9.00 | Mostly Cloudy | FEW040 SCT150 BKN250 | 55.2 | 52.3 | 90% | 29.57 | 0.0 | |||||||
| 04 | 23:53 | SW 13 G 22 | 10.00 | Mostly Cloudy | FEW150 BKN250 | 64.8 | 52 | 63% | 29.52 | 0.0 | |||||||
| 04 | 22:53 | SW 7 | 10.00 | Mostly Cloudy | FEW150 BKN250 | 63 | 52 | 68% | 29.53 | 0.0 | |||||||
| 04 | 21:53 | SW 10 G 20 | 10.00 | Mostly Cloudy | FEW080 SCT150 BKN250 | 63 | 52 | 68% | 29.53 | 0.0 | |||||||
| 04 | 20:53 | SW 7 | 10.00 | Overcast | FEW035 SCT080 BKN150 OVC250 | 61.2 | 53.6 | 76% | 29.52 | 0.0 | |||||||
| 04 | 19:53 | S 20 G 32 | 10.00 | Thunderstorm Light Rain | BKN080CB BKN150 OVC200 | 72 | 47.1 | 41% | 29.5 | 0.0 | |||||||
| 04 | 18:53 | W 12 G 22 | 10.00 | Mostly Cloudy | FEW060 BKN250 | 73 | 46.2 | 39% | 29.49 | 0.0 | |||||||
| 04 | 17:53 | SW 16 G 29 | 10.00 | Mostly Cloudy | SCT060 BKN250 | 73.9 | 43.3 | 33% | 29.52 | 0.0 | |||||||
| 04 | 16:53 | SW 17 G 32 | 10.00 | Mostly Cloudy | SCT060 BKN250 | 74.7 | 39.7 | 28% | 29.53 | 0.0 | |||||||
| 04 | 15:53 | SW 16 G 32 | 10.00 | Mostly Cloudy | FEW050 BKN250 | 74.7 | 36.1 | 25% | 29.54 | 0.0 | |||||||
| 04 | 14:53 | SW 15 G 24 | 10.00 | Mostly Cloudy | FEW050 BKN250 | 74.7 | 36.1 | 25% | 29.56 | 0.0 | |||||||
| 04 | 13:53 | SW 23 G 30 | 10.00 | Partly Cloudy and Breezy | FEW050 SCT250 | 73.6 | 36 | 25% | 29.58 | 0.0 | |||||||
| Date | Time (edt) | Wind (mph) | Vis. (mi.) | Weather | Sky Cond. | Air | Dwpt | Max. | Min. | Relative Humidity | Wind Chill (°F) | Heat Index (°F) | altimeter (in) | sea level (mb) | 1 hr | 3 hr | 6 hr |
| 6 hour | |||||||||||||||||
| Temperature (ºF) | Pressure | Precipitation (in) | |||||||||||||||